1507831200.03,16062,12.63,73974.8,-0.27,-1.05,-1.05,0,*66
1507831201.28,16063,12.63,73976.5,-0.29,-1.05,-1.05,0,*69
1507831202.47,16064,12.63,73968.3,-0.29,-1.29,-1.25,0,*62
1507831203.69,16065,12.63,73978.3,-0.27,-1.25,-1.17,0,*60
1507831204.9,16066,12.56,73974.3,-0.29,-1.13,-1.17,0,*68
1507831206.11,16067,12.63,73972.5,-0.27,-1.25,-1.25,0,*63
1507831207.34,16068,12.63,73974.8,-0.29,-1.29,-1.39,0,*63
1507831208.6,16069,12.63,73980.3,-0.27,-1.47,-1.47,0,*6D
1507831209.82,16070,12.63,73968.8,-0.29,-1.51,-1.47,0,*6C
1507831211.0,16071,12.63,73964.5,-0.29,-1.63,-1.59,0,*63
1507831212.2,16072,12.56,73966.3,-0.29,-1.71,-1.63,0,*6A
1507831213.42,16073,12.63,73970.5,-0.29,-1.83,-1.63,0,*66
1507831214.61,16074,12.63,73964.5,-0.29,-1.75,-1.63,0,*68
1507831215.85,16075,12.56,73948.5,-0.31,-1.55,-1.43,0,*60
1507831217.07,16076,12.63,73960.0,-0.31,-1.63,-1.51,0,*65
1507831218.26,16077,12.56,73968.3,-0.29,-1.63,-1.51,0,*6D
1507831219.44,16078,12.56,73970.0,-0.29,-1.51,-1.51,0,*63
1507831220.66,16079,12.63,73968.8,-0.27,-1.71,-1.59,0,*66
1507831221.88,16080,12.56,73968.0,-0.29,-1.83,-1.71,0,*69
1507831223.1,16081,12.63,73966.0,-0.29,-1.83,-1.75,0,*6C
1507831224.32,16082,12.63,73970.5,-0.31,-1.79,-1.75,0,*63
1507831225.56,16083,12.56,73964.5,-0.31,-1.87,-1.75,0,*63
1507831226.8,16084,12.56,73964.8,-0.33,-1.99,-1.95,0,*67
1507831228.02,16085,12.63,73968.0,-0.31,-1.79,-1.79,0,*68
1507831229.21,16086,12.63,73964.5,-0.33,-1.79,-1.67,0,*66
1507831230.46,16087,12.63,73966.3,-0.31,-1.87,-1.79,0,*6B
1507831231.67,16088,12.63,73964.3,-0.31,-1.79,-1.79,0,*65
1507831232.92,16089,12.63,73962.0,-0.33,-1.87,-1.91,0,*61
1507831234.16,16090,12.63,73966.5,-0.33,-1.83,-1.83,0,*6E
1507831235.35,16091,12.56,73968.3,-0.33,-1.79,-1.79,0,*6F
1507831236.57,16092,12.63,73972.3,-0.31,-1.79,-1.67,0,*61
1507831237.77,16093,12.63,73968.0,-0.33,-1.79,-1.71,0,*65
1507831238.99,16094,12.63,73970.5,-0.31,-1.67,-1.67,0,*68
1507831240.17,16095,12.56,73962.5,-0.33,-1.59,-1.59,0,*6B
1507831241.37,16096,12.63,73960.3,-0.33,-1.67,-1.67,0,*68
1507831242.56,16097,12.63,73964.3,-0.33,-1.67,-1.67,0,*69
1507831243.75,16098,12.63,73962.0,-0.33,-1.67,-1.59,0,*6B
1507831244.95,16099,12.56,73960.3,-0.33,-1.67,-1.67,0,*67
1507831246.13,16100,12.63,73960.8,-0.33,-1.59,-1.59,0,*66
1507831247.37,16101,12.56,73960.0,-0.31,-1.51,-1.43,0,*66
1507831248.61,16102,12.63,73964.0,-0.33,-1.47,-1.35,0,*61
1507831249.86,16103,12.63,73964.3,-0.33,-1.43,-1.43,0,*65
1507831251.11,16104,12.56,73960.0,-0.33,-1.43,-1.35,0,*63
1507831252.3,16105,12.63,73964.3,-0.33,-1.55,-1.55,0,*63
1507831253.51,16106,12.63,73966.5,-0.31,-1.55,-1.55,0,*62
1507831254.72,16107,12.63,73970.0,-0.31,-1.55,-1.55,0,*63
1507831255.94,16108,12.63,73968.5,-0.33,-1.47,-1.55,0,*6D
1507831257.18,16109,12.63,73968.5,-0.33,-1.47,-1.47,0,*6F
1507831258.43,16110,12.56,73968.8,-0.33,-1.43,-1.43,0,*67
1507831259.68,16111,12.63,73968.5,-0.33,-1.39,-1.43,0,*6B
1507831260.9,16112,12.63,73970.3,-0.33,-1.55,-1.35,0,*63
1507831262.11,16113,12.56,73964.8,-0.31,-1.51,-1.51,0,*66
1507831263.29,16114,12.63,73972.5,-0.33,-1.59,-1.55,0,*6F
1507831264.54,16115,12.56,73968.8,-0.33,-1.47,-1.43,0,*66
1507831265.81,16116,12.56,73968.3,-0.31,-1.43,-1.39,0,*6E
1507831267.05,16117,12.56,73968.8,-0.33,-1.43,-1.35,0,*61
1507831268.3,16118,12.63,73972.8,-0.33,-1.43,-1.43,0,*6F
1507831269.54,16119,12.56,73968.8,-0.33,-1.43,-1.35,0,*6F
1507831270.81,16120,12.63,73968.5,-0.35,-1.43,-1.43,0,*62
1507831272.06,16121,12.63,73968.5,-0.33,-1.43,-1.43,0,*65
1507831273.25,16122,12.56,73968.0,-0.33,-1.67,-1.59,0,*6B
1507831274.44,16123,12.56,73970.8,-0.33,-1.59,-1.67,0,*6A
1507831275.68,16124,12.63,73972.3,-0.35,-1.55,-1.47,0,*65
1507831276.92,16125,12.63,73974.5,-0.35,-1.55,-1.43,0,*60
1507831278.19,16126,12.56,73968.8,-0.35,-1.43,-1.43,0,*64
1507831279.46,16127,12.56,73968.0,-0.35,-1.47,-1.47,0,*65
1507831280.73,16128,12.56,73966.0,-0.31,-1.39,-1.43,0,*63
1507831281.94,16129,12.63,73966.0,-0.35,-1.55,-1.55,0,*6B
1507831283.21,16130,12.56,73958.3,-0.35,-1.43,-1.35,0,*62
1507831284.43,16131,12.63,73960.0,-0.33,-1.35,-1.33,0,*62
1507831285.62,16132,12.56,73974.0,-0.33,-1.33,-1.25,0,*60
1507831286.86,16133,12.63,73972.5,-0.31,-1.39,-1.33,0,*6E
1507831288.09,16134,12.56,73974.3,-0.31,-1.33,-1.21,0,*60
1507831289.31,16135,12.56,73978.0,-0.31,-1.21,-1.21,0,*62
1507831290.5,16136,12.56,73978.8,-0.33,-1.33,-1.33,0,*63
1507831291.69,16137,12.56,73978.8,-0.33,-1.25,-1.25,0,*62
1507831292.93,16138,12.56,73974.0,-0.33,-1.13,-1.13,0,*6D
1507831294.13,16139,12.63,73970.5,-0.33,-1.21,-1.21,0,*6C
1507831295.37,16140,12.63,73978.0,-0.31,-1.17,-1.09,0,*6F
1507831296.63,16141,12.56,73978.0,-0.31,-1.09,-1.09,0,*61
1507831297.89,16142,12.63,73966.0,-0.31,-1.09,-1.09,0,*62
1507831299.11,16143,12.63,73964.3,-0.33,-1.13,-1.21,0,*60
1507831300.36,16144,12.63,73968.3,-0.31,-1.17,-1.09,0,*6B
1507831301.55,16145,12.63,73974.0,-0.33,-1.33,-1.25,0,*60
1507831302.75,16146,12.63,73976.0,-0.33,-1.33,-1.21,0,*67
1507831303.97,16147,12.63,73976.3,-0.31,-1.29,-1.17,0,*6A
1507831305.19,16148,12.56,73968.0,-0.31,-1.21,-1.21,0,*68
1507831306.41,16149,12.63,73974.5,-0.31,-1.21,-1.21,0,*69
1507831307.63,16150,12.63,73976.8,-0.31,-1.29,-1.17,0,*6C
1507831308.87,16151,12.56,73978.5,-0.31,-1.09,-1.17,0,*6F
1507831310.11,16152,12.63,73986.0,-0.31,-1.09,-1.17,0,*6C
1507831311.33,16153,12.56,73978.0,-0.31,-1.21,-1.21,0,*62
1507831312.57,16154,12.56,73980.5,-0.31,-1.39,-1.33,0,*6F
1507831313.82,16155,12.63,73980.0,-0.29,-1.35,-1.39,0,*61
1507831315.06,16156,12.63,73982.3,-0.29,-1.35,-1.35,0,*6E
1507831316.33,16157,12.56,73980.3,-0.31,-1.43,-1.43,0,*66
1507831317.6,16158,12.63,73982.5,-0.31,-1.39,-1.35,0,*65
1507831318.84,16159,12.63,73976.3,-0.31,-1.51,-1.43,0,*6B
1507831320.03,16160,12.63,73978.5,-0.33,-1.55,-1.59,0,*6C
1507831321.24,16161,12.63,73972.5,-0.31,-1.63,-1.63,0,*63
1507831322.45,16162,12.56,73978.3,-0.31,-1.63,-1.55,0,*65
1507831323.63,16163,12.63,73986.0,-0.33,-1.59,-1.59,0,*63
1507831324.91,16164,12.63,73980.3,-0.31,-1.43,-1.39,0,*6B
1507831326.18,16165,12.63,73976.5,-0.31,-1.39,-1.43,0,*6A
1507831327.42,16166,12.63,73974.8,-0.33,-1.35,-1.35,0,*66
1507831328.67,16167,12.56,73972.0,-0.31,-1.33,-1.39,0,*6F
1507831329.88,16168,12.56,73970.5,-0.31,-1.33,-1.33,0,*6A
1507831331.13,16169,12.63,73964.3,-0.31,-1.39,-1.33,0,*61
1507831332.35,16170,12.63,73966.5,-0.31,-1.29,-1.21,0,*6B
1507831333.59,16171,12.63,73960.3,-0.31,-1.21,-1.09,0,*68
1507831334.81,16172,12.63,73970.5,-0.31,-1.17,-1.21,0,*64
1507831336.06,16173,12.56,73962.5,-0.31,-1.17,-1.09,0,*6F
1507831337.3,16174,12.63,73960.5,-0.31,-1.17,-1.09,0,*68
1507831338.52,16175,12.63,73954.8,-0.31,-1.21,-1.21,0,*66
1507831339.74,16176,12.56,73958.3,-0.33,-1.17,-1.09,0,*68
1507831340.97,16177,12.63,73970.0,-0.31,-1.21,-1.21,0,*64
1507831342.2,16178,12.63,73970.3,-0.29,-1.13,-1.13,0,*62
1507831343.43,16179,12.56,73970.5,-0.31,-1.29,-1.21,0,*62
1507831344.65,16180,12.63,73972.5,-0.31,-1.21,-1.21,0,*6C
1507831345.87,16181,12.63,73968.0,-0.31,-1.21,-1.21,0,*6D
1507831347.09,16182,12.63,73974.5,-0.27,-1.17,-1.17,0,*69
1507831348.34,16183,12.63,73980.3,-0.29,-1.05,-1.05,0,*66
1507831349.58,16184,12.63,73974.0,-0.29,-1.13,-1.05,0,*66
1507831350.83,16185,12.56,73962.3,-0.29,-1.05,-1.05,0,*60
1507831352.07,16186,12.63,73964.0,-0.31,-1.17,-1.09,0,*65
1507831353.26,16187,12.56,73966.3,-0.29,-1.25,-1.17,0,*63
1507831354.5,16188,12.56,73958.3,-0.29,-1.13,-1.13,0,*6D
1507831355.74,16189,12.63,73960.8,-0.29,-1.13,-1.13,0,*6C
1507831356.96,16190,12.56,73970.5,-0.29,-1.17,-1.13,0,*60
1507831358.2,16191,12.56,73952.8,-0.29,-1.13,-1.13,0,*65
1507831359.41,16192,12.63,73948.5,-0.29,-1.17,-1.13,0,*62
1507831360.66,16193,12.56,73960.5,-0.27,-1.17,-1.05,0,*6A
1507831361.92,16194,12.63,73952.5,-0.27,-1.05,-1.13,0,*69
1507831363.14,16195,12.63,73942.0,-0.27,-1.17,-1.17,0,*6F
1507831364.38,16196,12.63,73962.3,-0.27,-1.17,-1.13,0,*68
1507831365.63,16197,12.56,73960.0,-0.29,-1.05,-1.05,0,*63
1507831366.89,16198,12.63,73958.3,-0.27,-1.05,-1.13,0,*65
1507831368.11,16199,12.63,73952.8,-0.27,-1.17,-1.17,0,*63
1507831369.32,16200,12.63,73956.8,-0.27,-1.17,-1.25,0,*61
1507831370.58,16201,12.63,73960.5,-0.27,-1.13,-1.13,0,*61
1507831371.82,16202,12.63,73958.8,-0.29,-1.13,-1.13,0,*6C
1507831373.03,16203,12.63,73966.5,-0.27,-1.25,-1.17,0,*62
1507831374.3,16204,12.63,73970.8,-0.27,-1.47,-1.47,0,*64
1507831375.51,16205,12.63,73970.8,-0.27,-1.51,-1.51,0,*65
1507831376.74,16206,12.63,73960.3,-0.27,-1.51,-1.47,0,*61
1507831377.99,16207,12.63,73954.3,-0.29,-1.47,-1.39,0,*60
1507831379.23,16208,12.63,73950.5,-0.29,-1.47,-1.47,0,*66
1507831380.45,16209,12.63,73942.8,-0.29,-1.51,-1.47,0,*60
1507831381.68,16210,12.63,73942.0,-0.27,-1.35,-1.25,0,*60
1507831382.94,16211,12.56,73932.0,-0.27,-1.35,-1.39,0,*6C
1507831384.19,16212,12.63,73934.8,-0.29,-1.39,-1.47,0,*64
1507831385.38,16213,12.63,73938.0,-0.29,-1.29,-1.25,0,*60
1507831386.57,16214,12.63,73940.3,-0.29,-1.25,-1.25,0,*6B
1507831387.76,16215,12.63,73942.0,-0.29,-1.29,-1.25,0,*66
1507831388.98,16216,12.63,73946.3,-0.27,-1.25,-1.17,0,*66
1507831390.24,16217,12.63,73950.3,-0.27,-1.13,-1.05,0,*61
1507831391.44,16218,12.56,73948.3,-0.29,-1.17,-1.17,0,*67
1507831392.68,16219,12.63,73946.8,-0.29,-1.13,-1.13,0,*66
1507831393.87,16220,12.63,73928.5,-0.29,-1.25,-1.17,0,*6D
1507831395.08,16221,12.63,73928.0,-0.27,-1.25,-1.25,0,*63
1507831396.32,16222,12.63,73932.3,-0.27,-1.35,-1.29,0,*6D
1507831397.53,16223,12.63,73942.3,-0.27,-1.29,-1.25,0,*6D
1507831398.77,16224,12.63,73936.3,-0.27,-1.17,-1.13,0,*62
1507831399.98,16225,12.63,73932.3,-0.27,-1.17,-1.25,0,*66
1507831401.19,16226,12.56,73938.3,-0.27,-1.25,-1.17,0,*65
1507831402.41,16227,12.56,73952.0,-0.27,-1.17,-1.17,0,*65
1507831403.67,16228,12.56,73960.3,-0.27,-1.13,-1.13,0,*6A
1507831404.93,16229,12.63,73958.0,-0.27,-1.05,-1.13,0,*6C
1507831406.17,16230,12.56,73950.8,-0.27,-1.17,-1.13,0,*67
1507831407.44,16231,12.63,73954.8,-0.27,-1.05,-1.05,0,*62
1507831408.71,16232,12.63,73954.0,-0.27,-1.05,-1.05,0,*61
1507831409.97,16233,12.63,73958.8,-0.27,-1.05,-1.13,0,*67
1507831411.21,16234,12.63,73962.8,-0.27,-1.17,-1.13,0,*63
1507831412.43,16235,12.63,73958.3,-0.25,-1.13,-1.21,0,*65
1507831413.62,16236,12.63,73962.8,-0.25,-1.21,-1.33,0,*64
1507831414.83,16237,12.63,73964.0,-0.25,-1.59,-1.87,0,*65
1507831416.05,16238,12.63,73964.5,-0.25,-2.19,-2.59,0,*6D
1507831417.27,16239,12.63,73964.8,-0.25,-2.47,-2.99,0,*6B
1507831418.49,16240,12.63,73956.3,-0.27,-3.11,-3.27,0,*61
1507831419.73,16241,12.56,73946.5,-0.27,-3.51,-3.39,0,*6B
1507831420.97,16242,12.56,73942.8,-0.27,-3.75,-3.51,0,*60
1507831422.17,16243,12.63,73956.8,-0.29,-4.65,-3.67,0,*6C
1507831423.4,16244,12.63,73962.8,-0.29,-5.23,-3.75,0,*6B
1507831424.6,16245,12.63,73952.3,-0.29,-4.93,-3.15,0,*66
1507831425.83,16246,12.63,73960.0,-0.29,-4.57,-2.63,0,*6D
1507831427.05,16247,12.63,73946.0,-0.29,-3.35,-2.47,0,*69
1507831428.29,16248,12.63,73942.0,-0.31,-2.51,-2.27,0,*6A
1507831429.5,16249,12.63,73940.0,-0.31,-2.39,-2.15,0,*64
1507831430.71,16250,12.63,73946.0,-0.31,-2.43,-2.15,0,*61
1507831431.91,16251,12.63,73942.0,-0.33,-2.43,-2.31,0,*64
1507831433.13,16252,12.63,73944.5,-0.33,-2.55,-2.35,0,*64
1507831434.34,16253,12.63,73942.8,-0.33,-2.35,-2.11,0,*65
1507831435.55,16254,12.63,73950.5,-0.33,-2.23,-1.95,0,*6A
1507831436.77,16255,12.63,73942.8,-0.33,-2.35,-2.07,0,*64
1507831437.99,16256,12.63,73946.8,-0.33,-2.23,-1.99,0,*64
1507831439.21,16257,12.56,73932.0,-0.33,-2.35,-1.99,0,*62
1507831440.46,16258,12.63,73946.3,-0.33,-2.07,-1.83,0,*67
1507831441.67,16259,12.63,73934.5,-0.33,-1.91,-1.79,0,*6F
1507831442.89,16260,12.56,73930.5,-0.33,-1.91,-1.79,0,*65
1507831444.14,16261,12.63,73942.5,-0.35,-1.83,-1.79,0,*61
1507831445.36,16262,12.63,73938.0,-0.35,-1.79,-1.71,0,*6F
1507831446.6,16263,12.63,73932.3,-0.35,-1.83,-1.79,0,*63
1507831447.84,16264,12.63,73928.0,-0.35,-1.83,-1.79,0,*64
1507831449.06,16265,12.63,73942.5,-0.37,-1.87,-1.75,0,*6F
1507831450.28,16266,12.63,73942.5,-0.35,-1.79,-1.79,0,*63
1507831451.5,16267,12.63,73928.8,-0.35,-1.79,-1.71,0,*6A
1507831452.72,16268,12.63,73952.8,-0.35,-1.71,-1.71,0,*6D
1507831453.95,16269,12.56,73940.0,-0.35,-1.71,-1.71,0,*6C
1507831455.17,16270,12.63,73938.5,-0.35,-1.71,-1.67,0,*63
1507831456.4,16271,12.63,73936.3,-0.35,-1.71,-1.67,0,*62
1507831457.61,16272,12.63,73934.8,-0.35,-1.79,-1.79,0,*66
1507831458.86,16273,12.63,73936.0,-0.35,-1.83,-1.79,0,*62
1507831460.07,16274,12.63,73932.8,-0.35,-1.79,-1.79,0,*60
1507831461.29,16275,12.63,73942.0,-0.35,-1.79,-1.79,0,*61
1507831462.51,16276,12.63,73942.3,-0.35,-1.71,-1.71,0,*62
1507831463.73,16277,12.56,73940.0,-0.35,-1.79,-1.67,0,*6C
1507831464.93,16278,12.63,73940.3,-0.37,-1.71,-1.71,0,*6E
1507831466.12,16279,12.63,73944.3,-0.37,-1.75,-1.75,0,*6F
1507831467.34,16280,12.63,73942.3,-0.35,-1.71,-1.67,0,*6C
1507831468.56,16281,12.63,73938.8,-0.35,-1.67,-1.67,0,*6A
1507831469.79,16282,12.63,73932.5,-0.35,-1.71,-1.67,0,*6E
1507831470.98,16283,12.56,73934.0,-0.37,-1.63,-1.71,0,*69
1507831472.18,16284,12.63,73938.3,-0.37,-1.71,-1.71,0,*6D
1507831473.45,16285,12.63,73952.8,-0.35,-1.47,-1.47,0,*6E
1507831474.66,16286,12.56,73948.8,-0.37,-1.51,-1.47,0,*68
1507831475.87,16287,12.63,73952.5,-0.35,-1.55,-1.55,0,*6C
1507831477.08,16288,12.56,73908.3,-0.35,-1.55,-1.59,0,*6F
1507831478.3,16289,12.56,73930.3,-0.37,-1.75,-1.83,0,*69
1507831479.49,16290,12.63,73932.5,-0.37,-1.71,-1.63,0,*6B
1507831480.67,16291,12.63,73946.8,-0.37,-1.59,-1.59,0,*69
1507831481.91,16292,12.56,73928.5,-0.35,-1.55,-1.47,0,*6B
1507831483.09,16293,12.56,73918.5,-0.37,-1.59,-1.59,0,*6B
1507831484.31,16294,12.63,73938.8,-0.37,-1.59,-1.47,0,*63
1507831485.57,16295,12.56,73942.8,-0.35,-1.47,-1.43,0,*6B
1507831486.82,16296,12.63,73954.5,-0.37,-1.47,-1.47,0,*6E
1507831488.0,16297,12.63,73950.3,-0.37,-1.51,-1.51,0,*6F
1507831489.27,16298,12.63,73954.8,-0.35,-1.47,-1.43,0,*66
1507831490.48,16299,12.63,73942.8,-0.37,-1.51,-1.47,0,*66
1507831491.75,16300,12.63,73944.5,-0.35,-1.47,-1.43,0,*66
1507831493.02,16301,12.63,73952.5,-0.35,-1.47,-1.47,0,*63
1507831494.27,16302,12.63,73966.3,-0.37,-1.47,-1.47,0,*62
1507831495.53,16303,12.56,73956.5,-0.35,-1.35,-1.35,0,*61
1507831496.78,16304,12.56,73950.0,-0.37,-1.39,-1.35,0,*68
1507831498.0,16305,12.63,73948.8,-0.35,-1.33,-1.33,0,*67
1507831499.26,16306,12.63,73950.3,-0.35,-1.47,-1.35,0,*61
1507831500.53,16307,12.63,73952.0,-0.35,-1.35,-1.35,0,*65
1507831501.75,16308,12.56,73952.5,-0.35,-1.33,-1.25,0,*6D
1507831502.99,16309,12.63,73962.3,-0.35,-1.21,-1.13,0,*6A
1507831504.2,16310,12.63,73948.8,-0.35,-1.33,-1.25,0,*64
1507831505.44,16311,12.63,73938.0,-0.35,-1.35,-1.33,0,*64
1507831506.63,16312,12.56,73932.3,-0.33,-1.33,-1.33,0,*67
1507831507.83,16313,12.63,73952.0,-0.33,-1.33,-1.33,0,*66
1507831509.02,16314,12.56,73960.0,-0.33,-1.25,-1.21,0,*65
1507831510.21,16315,12.63,73968.8,-0.33,-1.25,-1.33,0,*67
1507831511.46,16316,12.63,73974.3,-0.33,-1.35,-1.35,0,*63
1507831512.65,16317,12.63,73972.8,-0.33,-1.25,-1.25,0,*62
1507831513.87,16318,12.63,73976.3,-0.31,-1.21,-1.21,0,*6F
1507831515.06,16319,12.56,73964.3,-0.33,-1.25,-1.21,0,*68
1507831516.29,16320,12.63,73960.5,-0.31,-1.29,-1.21,0,*6C
1507831517.48,16321,12.56,73960.0,-0.33,-1.21,-1.21,0,*67
1507831518.71,16322,12.63,73964.3,-0.31,-1.21,-1.21,0,*66
1507831519.91,16323,12.63,73966.3,-0.33,-1.21,-1.21,0,*65
1507831521.13,16324,12.63,73974.8,-0.31,-1.21,-1.29,0,*68
1507831522.31,16325,12.63,73974.0,-0.33,-1.25,-1.25,0,*63
1507831523.54,16326,12.63,73972.0,-0.31,-1.17,-1.21,0,*67
1507831524.81,16327,12.63,73964.3,-0.31,-1.39,-1.39,0,*63
1507831526.03,16328,12.63,73968.0,-0.31,-1.29,-1.21,0,*64
1507831527.28,16329,12.63,73980.0,-0.31,-1.21,-1.09,0,*67
1507831528.49,16330,12.63,73980.5,-0.31,-1.29,-1.29,0,*65
1507831529.7,16331,12.63,73974.8,-0.31,-1.51,-1.51,0,*64
1507831530.91,16332,12.63,73972.0,-0.31,-1.51,-1.51,0,*67
1507831532.13,16333,12.63,73968.5,-0.31,-1.55,-1.55,0,*66
1507831533.34,16334,12.63,73966.0,-0.31,-1.63,-1.63,0,*61
1507831534.53,16335,12.63,73972.8,-0.33,-1.67,-1.59,0,*6F
1507831535.77,16336,12.56,73964.3,-0.31,-1.51,-1.43,0,*60
1507831537.03,16337,12.63,73960.8,-0.31,-1.43,-1.43,0,*62
1507831538.22,16338,12.56,73952.8,-0.33,-1.55,-1.55,0,*6F
1507831539.46,16339,12.63,73956.5,-0.31,-1.51,-1.43,0,*6F
1507831540.71,16340,12.56,73962.3,-0.33,-1.47,-1.47,0,*60
1507831541.97,16341,12.63,73960.5,-0.31,-1.43,-1.43,0,*63
1507831543.22,16342,12.63,73956.3,-0.31,-1.39,-1.29,0,*61
1507831544.44,16343,12.63,73970.3,-0.31,-1.29,-1.29,0,*61
1507831545.71,16344,12.63,73950.0,-0.31,-1.39,-1.39,0,*66
1507831546.98,16345,12.56,73944.0,-0.31,-1.39,-1.39,0,*67
1507831548.2,16346,12.63,73952.5,-0.31,-1.29,-1.33,0,*6F
1507831549.42,16347,12.56,73944.5,-0.31,-1.33,-1.33,0,*65
1507831550.63,16348,12.63,73942.5,-0.31,-1.29,-1.29,0,*6A
1507831551.86,16349,12.56,73944.0,-0.31,-1.29,-1.21,0,*63
1507831553.07,16350,12.63,73954.8,-0.31,-1.33,-1.33,0,*63
1507831554.29,16351,12.56,73970.3,-0.31,-1.21,-1.21,0,*62
1507831555.49,16352,12.63,73982.0,-0.33,-1.21,-1.25,0,*67
1507831556.7,16353,12.63,73982.3,-0.31,-1.33,-1.33,0,*60
1507831557.95,16354,12.63,73972.3,-0.31,-1.33,-1.39,0,*6D
1507831559.2,16355,12.56,73954.8,-0.31,-1.33,-1.39,0,*6C
1507831560.44,16356,12.63,73954.8,-0.31,-1.43,-1.33,0,*62
1507831561.66,16357,12.63,73956.5,-0.31,-1.21,-1.21,0,*64
1507831562.88,16358,12.63,73956.5,-0.31,-1.21,-1.21,0,*6B
1507831564.1,16359,12.63,73958.3,-0.31,-1.29,-1.21,0,*62
1507831565.32,16360,12.56,73950.3,-0.31,-1.33,-1.29,0,*6B
1507831566.57,16361,12.56,73946.0,-0.29,-1.39,-1.35,0,*64
1507831567.79,16362,12.56,73946.0,-0.31,-1.29,-1.29,0,*62
1507831569.01,16363,12.63,73948.3,-0.31,-1.21,-1.21,0,*63
1507831570.21,16364,12.63,73950.5,-0.29,-1.17,-1.17,0,*6D
1507831571.4,16365,12.56,73950.3,-0.29,-1.29,-1.29,0,*6C
1507831572.59,16366,12.63,73960.0,-0.29,-1.25,-1.25,0,*6F
1507831573.83,16367,12.63,73968.3,-0.29,-1.13,-1.13,0,*6E
1507831575.07,16368,12.63,73968.0,-0.29,-1.13,-1.13,0,*61
1507831576.29,16369,12.63,73960.0,-0.29,-1.17,-1.13,0,*64
1507831577.48,16370,12.63,73964.5,-0.29,-1.29,-1.17,0,*65
1507831578.69,16371,12.56,73960.0,-0.27,-1.29,-1.25,0,*6B
1507831579.91,16372,12.56,73966.5,-0.27,-1.25,-1.17,0,*65
1507831581.14,16373,12.63,73972.0,-0.29,-1.13,-1.13,0,*6B
1507831582.39,16374,12.63,73968.3,-0.29,-1.39,-1.47,0,*65
1507831583.64,16375,12.56,73952.3,-0.29,-1.47,-1.47,0,*6D
1507831584.91,16376,12.56,73956.8,-0.27,-1.47,-1.47,0,*60
1507831586.13,16377,12.63,73960.3,-0.29,-1.39,-1.29,0,*6E
1507831587.32,16378,12.63,73964.0,-0.29,-1.25,-1.25,0,*60
1507831588.56,16379,12.63,73960.8,-0.29,-1.35,-1.35,0,*61
1507831589.8,16380,12.63,73964.5,-0.27,-1.35,-1.29,0,*64
1507831591.06,16381,12.56,73966.3,-0.31,-1.43,-1.39,0,*62
1507831592.31,16382,12.56,73960.3,-0.29,-1.47,-1.47,0,*65
1507831593.5,16383,12.63,73970.0,-0.29,-1.51,-1.51,0,*64
1507831594.71,16384,12.56,73958.5,-0.29,-1.51,-1.47,0,*64
1507831595.91,16385,12.63,73964.5,-0.29,-1.29,-1.29,0,*62
1507831597.1,16386,12.63,73962.8,-0.29,-1.29,-1.25,0,*6D
1507831598.29,16387,12.56,73964.5,-0.29,-1.25,-1.17,0,*61
1507831599.51,16388,12.56,73970.5,-0.29,-1.35,-1.29,0,*62
1507831600.7,16389,12.63,73956.0,-0.29,-1.29,-1.29,0,*6E
1507831601.92,16390,12.63,73946.8,-0.29,-1.35,-1.29,0,*6B
1507831603.14,16391,12.63,73950.5,-0.31,-1.33,-1.21,0,*6D
1507831604.33,16392,12.56,73942.8,-0.29,-1.25,-1.17,0,*65
1507831605.52,16393,12.63,73950.8,-0.29,-1.25,-1.17,0,*64
1507831606.74,16394,12.56,73952.5,-0.29,-1.35,-1.25,0,*63
1507831607.93,16395,12.56,73954.3,-0.29,-1.29,-1.25,0,*6F
1507831609.12,16396,12.56,73950.5,-0.29,-1.29,-1.25,0,*6C
1507831610.32,16397,12.63,73954.3,-0.29,-1.29,-1.29,0,*61
1507831611.56,16398,12.63,73958.5,-0.29,-1.35,-1.35,0,*6E
1507831612.78,16399,12.56,73966.0,-0.31,-1.21,-1.21,0,*66
1507831613.97,16400,12.56,73966.5,-0.29,-1.25,-1.25,0,*68
1507831615.19,16401,12.63,73968.8,-0.31,-1.29,-1.29,0,*60
1507831616.41,16402,12.56,73966.0,-0.31,-1.33,-1.29,0,*68
1507831617.63,16403,12.56,73962.5,-0.31,-1.33,-1.21,0,*61
1507831618.82,16404,12.63,73960.3,-0.29,-1.25,-1.17,0,*6D
1507831620.04,16405,12.63,73960.5,-0.27,-1.17,-1.25,0,*62
1507831621.23,16406,12.56,73960.3,-0.29,-1.29,-1.25,0,*62
1507831622.42,16407,12.63,73966.3,-0.29,-1.29,-1.29,0,*6F
1507831623.61,16408,12.56,73968.8,-0.29,-1.29,-1.25,0,*6C
1507831624.8,16409,12.56,73970.8,-0.29,-1.25,-1.25,0,*61
1507831626.0,16410,12.56,73956.8,-0.29,-1.29,-1.25,0,*65
1507831627.21,16411,12.56,73944.5,-0.29,-1.35,-1.25,0,*69
1507831628.4,16412,12.56,73936.0,-0.29,-1.17,-1.25,0,*6A
1507831629.59,16413,12.56,73932.5,-0.29,-1.29,-1.25,0,*66
1507831630.78,16414,12.56,73946.5,-0.29,-1.25,-1.25,0,*6D
1507831632.0,16415,12.56,73956.0,-0.27,-1.25,-1.17,0,*63
1507831633.26,16416,12.56,73960.5,-0.27,-1.13,-1.05,0,*66
1507831634.48,16417,12.56,73966.0,-0.29,-1.17,-1.13,0,*6A
1507831635.72,16418,12.63,73966.0,-0.27,-1.17,-1.05,0,*6C
1507831636.96,16419,12.56,73962.0,-0.29,-1.05,-1.13,0,*67
1507831638.21,16420,12.56,73966.8,-0.29,-1.05,-1.13,0,*6D
1507831639.47,16421,12.63,73970.5,-0.27,-1.05,-1.01,0,*61
1507831640.74,16422,12.56,73964.8,-0.27,-1.05,-1.01,0,*62
1507831641.98,16423,12.56,73962.0,-0.29,-1.05,-1.05,0,*69
1507831643.25,16424,12.56,73964.3,-0.27,-1.05,-1.05,0,*60
1507831644.52,16425,12.56,73970.3,-0.27,-1.05,-1.05,0,*61
1507831645.78,16426,12.56,73974.0,-0.27,-1.13,-1.13,0,*62
1507831647.05,16427,12.63,73982.5,-0.27,-1.05,-1.05,0,*63
1507831648.29,16428,12.56,73990.8,-0.25,-1.13,-1.09,0,*65
1507831649.5,16429,12.56,73990.8,-0.25,-1.43,-1.25,0,*6F
1507831650.69,16430,12.56,73988.8,-0.25,-1.33,-1.25,0,*60
1507831651.93,16431,12.56,73980.0,-0.25,-1.13,-1.13,0,*66
1507831653.13,16432,12.63,73988.3,-0.25,-1.33,-1.21,0,*66
1507831654.32,16433,12.56,73988.3,-0.25,-1.25,-1.25,0,*64
1507831655.56,16434,12.56,73988.8,-0.25,-1.01,-1.09,0,*6B
1507831656.82,16435,12.56,73984.8,-0.27,-1.13,-1.05,0,*67
1507831658.06,16436,12.56,73986.3,-0.27,-1.13,-1.17,0,*67
1507831659.28,16437,12.56,73990.8,-0.25,-1.13,-1.21,0,*61
1507831660.52,16438,12.56,73988.0,-0.25,-1.13,-1.09,0,*64
1507831661.76,16439,12.56,73986.0,-0.25,-1.13,-1.13,0,*6E
1507831663.0,16440,12.63,73988.0,-0.25,-1.13,-1.13,0,*60
1507831664.24,16441,12.56,73980.3,-0.25,-1.13,-1.09,0,*6A
1507831665.49,16442,12.56,73984.0,-0.23,-1.09,-1.09,0,*64
1507831666.73,16443,12.56,73980.8,-0.25,-1.09,-1.09,0,*63
1507831667.99,16444,12.56,73980.8,-0.23,-1.01,-1.09,0,*6A
1507831669.23,16445,12.56,73982.5,-0.25,-1.13,-1.09,0,*6E
1507831670.49,16446,12.56,73980.3,-0.23,-1.13,-1.01,0,*63
1507831671.73,16447,12.56,73980.3,-0.25,-1.13,-1.09,0,*6C
1507831672.97,16448,12.56,73978.8,-0.25,-1.13,-1.09,0,*63
1507831674.23,16449,12.56,73976.0,-0.23,-1.13,-1.13,0,*6F
1507831675.45,16450,12.56,73978.5,-0.23,-1.25,-1.21,0,*63
1507831676.64,16451,12.56,73972.5,-0.25,-1.21,-1.21,0,*60
1507831677.86,16452,12.56,73976.0,-0.25,-1.21,-1.13,0,*62
1507831679.08,16453,12.56,73980.5,-0.25,-1.21,-1.09,0,*68
1507831680.29,16454,12.56,73982.0,-0.25,-1.35,-1.33,0,*63
1507831681.51,16455,12.56,73986.3,-0.23,-1.25,-1.21,0,*66
1507831682.71,16456,12.56,73986.3,-0.25,-1.21,-1.21,0,*67
1507831683.9,16457,12.63,73990.8,-0.25,-1.25,-1.21,0,*62
1507831685.12,16458,12.56,73990.3,-0.23,-1.21,-1.21,0,*6F
1507831686.32,16459,12.56,73986.0,-0.25,-1.21,-1.21,0,*68
1507831687.51,16460,12.56,73980.0,-0.25,-1.25,-1.25,0,*62
1507831688.7,16461,12.63,73982.5,-0.25,-1.33,-1.21,0,*60
1507831689.92,16462,12.56,73982.5,-0.23,-1.33,-1.21,0,*65
1507831691.13,16463,12.56,73982.0,-0.23,-1.25,-1.25,0,*67
1507831692.37,16464,12.56,73980.3,-0.23,-1.21,-1.13,0,*61
1507831693.6,16465,12.56,73982.5,-0.23,-1.21,-1.13,0,*60
1507831694.87,16466,12.56,73984.0,-0.23,-1.43,-1.43,0,*62
1507831696.05,16467,12.56,73986.0,-0.25,-1.25,-1.25,0,*65
1507831697.24,16468,12.63,73986.0,-0.25,-1.25,-1.25,0,*6A
1507831698.44,16469,12.56,73982.3,-0.25,-1.33,-1.33,0,*6B
1507831699.63,16470,12.56,73976.5,-0.25,-1.25,-1.21,0,*67
1507831700.87,16471,12.63,73976.8,-0.25,-1.13,-1.13,0,*62
1507831702.06,16472,12.63,73972.8,-0.25,-1.33,-1.33,0,*61
1507831703.25,16473,12.56,73962.5,-0.25,-1.33,-1.25,0,*67
1507831704.49,16474,12.56,73954.3,-0.25,-1.13,-1.13,0,*67
1507831705.71,16475,12.56,73962.0,-0.25,-1.21,-1.13,0,*67